Time,TemperatureF,DewpointF,PressureIn,WindDirection,WindDirectionDegrees,WindSpeedMPH,WindSpeedGustMPH,Humidity,HourlyPrecipIn,Conditions,Clouds,dailyrainin,SoftwareType,DateUTC
2013-02-23 00:01:00,8.7,6.0,30.10,WSW,250,0.0,0.0,89,0.00,,,0.00,weatherlink.com 1.10,2013-02-23 06:01:00,
2013-02-23 00:17:00,8.0,5.0,30.09,WSW,250,0.0,2.0,88,0.00,,,0.00,weatherlink.com 1.10,2013-02-23 06:17:00,
2013-02-23 00:31:00,7.6,5.0,30.09,WSW,250,0.0,1.0,88,0.00,,,0.00,weatherlink.com 1.10,2013-02-23 06:31:00,
2013-02-23 00:46:00,7.6,5.0,30.09,West,278,0.0,1.0,89,0.00,,,0.00,weatherlink.com 1.10,2013-02-23 06:46:00,
2013-02-23 01:03:00,7.8,5.0,30.09,WSW,255,0.0,2.0,89,0.00,,,0.00,weatherlink.com 1.10,2013-02-23 07:03:00,
2013-02-23 01:17:00,7.3,5.0,30.09,SW,228,0.0,1.0,88,0.00,,,0.00,weatherlink.com 1.10,2013-02-23 07:17:00,
2013-02-23 01:33:00,6.6,4.0,30.10,SW,236,0.0,1.0,88,0.00,,,0.00,weatherlink.com 1.10,2013-02-23 07:33:00,
2013-02-23 01:47:00,6.3,4.0,30.10,SSW,195,1.0,1.0,88,0.00,,,0.00,weatherlink.com 1.10,2013-02-23 07:47:00,
2013-02-23 02:02:00,6.2,4.0,30.09,South,191,0.0,1.0,89,0.00,,,0.00,weatherlink.com 1.10,2013-02-23 08:02:00,
2013-02-23 02:16:00,6.0,3.0,30.08,SSW,192,1.0,1.0,88,0.00,,,0.00,weatherlink.com 1.10,2013-02-23 08:16:00,
2013-02-23 02:32:00,5.7,3.0,30.08,SW,222,1.0,3.0,88,0.00,,,0.00,weatherlink.com 1.10,2013-02-23 08:32:00,
2013-02-23 02:47:00,5.3,3.0,30.08,West,260,0.0,1.0,88,0.00,,,0.00,weatherlink.com 1.10,2013-02-23 08:47:00,
2013-02-23 03:02:00,5.1,2.0,30.07,South,191,0.0,1.0,88,0.00,,,0.00,weatherlink.com 1.10,2013-02-23 09:02:00,
2013-02-23 03:18:00,5.2,3.0,30.06,SSW,208,1.0,1.0,89,0.00,,,0.00,weatherlink.com 1.10,2013-02-23 09:18:00,
2013-02-23 03:32:00,5.4,3.0,30.06,SW,225,0.0,1.0,89,0.00,,,0.00,weatherlink.com 1.10,2013-02-23 09:32:00,
2013-02-23 03:47:00,4.9,2.0,30.05,South,191,1.0,3.0,87,0.00,,,0.00,weatherlink.com 1.10,2013-02-23 09:47:00,
2013-02-23 04:02:00,4.0,1.0,30.05,South,191,1.0,3.0,87,0.00,,,0.00,weatherlink.com 1.10,2013-02-23 10:02:00,
2013-02-23 04:18:00,3.5,1.0,30.04,South,191,0.0,2.0,87,0.00,,,0.00,weatherlink.com 1.10,2013-02-23 10:18:00,
2013-02-23 04:32:00,3.3,0.0,30.04,South,191,0.0,3.0,87,0.00,,,0.00,weatherlink.com 1.10,2013-02-23 10:32:00,
2013-02-23 04:48:00,3.2,0.0,30.04,South,191,1.0,2.0,87,0.00,,,0.00,weatherlink.com 1.10,2013-02-23 10:48:00,
2013-02-23 05:04:00,2.9,0.0,30.04,South,191,0.0,3.0,87,0.00,,,0.00,weatherlink.com 1.10,2013-02-23 11:04:00,
2013-02-23 05:18:00,2.8,0.0,30.03,South,191,0.0,3.0,87,0.00,,,0.00,weatherlink.com 1.10,2013-02-23 11:18:00,
2013-02-23 05:33:00,2.4,-1.0,30.04,South,191,0.0,2.0,86,0.00,,,0.00,weatherlink.com 1.10,2013-02-23 11:33:00,
2013-02-23 05:49:00,2.6,-1.0,30.04,South,191,0.0,2.0,86,0.00,,,0.00,weatherlink.com 1.10,2013-02-23 11:49:00,
2013-02-23 06:03:00,3.1,0.0,30.04,South,191,0.0,2.0,87,0.00,,,0.00,weatherlink.com 1.10,2013-02-23 12:03:00,
2013-02-23 06:19:00,3.6,1.0,30.04,West,264,0.0,2.0,87,0.00,,,0.00,weatherlink.com 1.10,2013-02-23 12:19:00,
2013-02-23 06:33:00,4.0,1.0,30.03,South,191,0.0,1.0,87,0.00,,,0.00,weatherlink.com 1.10,2013-02-23 12:33:00,
2013-02-23 06:48:00,4.9,2.0,30.02,WSW,254,0.0,2.0,88,0.00,,,0.00,weatherlink.com 1.10,2013-02-23 12:48:00,
2013-02-23 07:04:00,5.4,3.0,30.02,WSW,240,1.0,1.0,88,0.00,,,0.00,weatherlink.com 1.10,2013-02-23 13:04:00,
2013-02-23 07:18:00,5.4,3.0,30.01,South,191,0.0,2.0,88,0.00,,,0.00,weatherlink.com 1.10,2013-02-23 13:18:00,
2013-02-23 07:34:00,5.5,3.0,30.01,WSW,245,1.0,2.0,88,0.00,,,0.00,weatherlink.com 1.10,2013-02-23 13:34:00,
2013-02-23 07:49:00,6.0,3.0,30.01,WNW,285,0.0,2.0,88,0.00,,,0.00,weatherlink.com 1.10,2013-02-23 13:49:00,
2013-02-23 08:04:00,6.8,4.0,30.01,WSW,257,0.0,2.0,88,0.00,,,0.00,weatherlink.com 1.10,2013-02-23 14:04:00,
2013-02-23 08:19:00,7.5,5.0,30.00,West,262,0.0,3.0,88,0.00,,,0.00,weatherlink.com 1.10,2013-02-23 14:19:00,
2013-02-23 08:34:00,8.6,6.0,30.01,WSW,255,2.0,3.0,88,0.00,,,0.00,weatherlink.com 1.10,2013-02-23 14:34:00,
2013-02-23 08:49:00,10.4,7.0,30.01,SW,233,3.0,4.0,87,0.00,,,0.00,weatherlink.com 1.10,2013-02-23 14:49:00,
2013-02-23 09:04:00,11.8,8.0,30.01,WSW,243,1.0,4.0,85,0.00,,,0.00,weatherlink.com 1.10,2013-02-23 15:04:00,
2013-02-23 09:20:00,14.1,9.0,30.01,West,273,2.0,3.0,81,0.00,,,0.00,weatherlink.com 1.10,2013-02-23 15:20:00,
2013-02-23 09:34:00,14.5,9.0,30.02,West,260,0.0,5.0,80,0.00,,,0.00,weatherlink.com 1.10,2013-02-23 15:34:00,
2013-02-23 09:49:00,17.3,12.0,30.01,South,191,1.0,3.0,78,0.00,,,0.00,weatherlink.com 1.10,2013-02-23 15:49:00,
2013-02-23 10:05:00,18.6,12.0,30.00,South,191,0.0,5.0,76,0.00,,,0.00,weatherlink.com 1.10,2013-02-23 16:05:00,
2013-02-23 10:19:00,19.7,13.0,30.00,SW,222,0.0,6.0,74,0.00,,,0.00,weatherlink.com 1.10,2013-02-23 16:19:00,
2013-02-23 10:50:00,20.9,14.0,30.01,South,184,4.0,7.0,75,0.00,,,0.00,weatherlink.com 1.10,2013-02-23 16:50:00,
2013-02-23 11:05:00,22.3,16.0,30.01,South,186,1.0,6.0,75,0.00,,,0.00,weatherlink.com 1.10,2013-02-23 17:05:00,
2013-02-23 11:20:00,23.7,16.0,30.01,SSW,194,1.0,8.0,72,0.00,,,0.00,weatherlink.com 1.10,2013-02-23 17:20:00,
2013-02-23 11:35:00,24.6,17.0,30.00,East,80,2.0,8.0,72,0.00,,,0.00,weatherlink.com 1.10,2013-02-23 17:35:00,
2013-02-23 11:50:00,25.7,18.0,30.00,South,191,3.0,6.0,72,0.00,,,0.00,weatherlink.com 1.10,2013-02-23 17:50:00,
2013-02-23 12:05:00,26.9,19.0,29.99,SSW,193,3.0,8.0,71,0.00,,,0.00,weatherlink.com 1.10,2013-02-23 18:05:00,
2013-02-23 12:21:00,27.5,20.0,29.99,South,191,1.0,10.0,72,0.00,,,0.00,weatherlink.com 1.10,2013-02-23 18:21:00,
2013-02-23 12:35:00,27.9,19.0,29.99,WSW,238,3.0,7.0,70,0.00,,,0.00,weatherlink.com 1.10,2013-02-23 18:35:00,
2013-02-23 12:50:00,27.9,19.0,29.98,SSE,155,2.0,8.0,69,0.00,,,0.00,weatherlink.com 1.10,2013-02-23 18:50:00,
2013-02-23 13:06:00,28.1,20.0,29.98,SW,214,6.0,10.0,71,0.00,,,0.00,weatherlink.com 1.10,2013-02-23 19:06:00,
2013-02-23 13:21:00,29.7,22.0,29.97,WNW,295,4.0,7.0,72,0.00,,,0.00,weatherlink.com 1.10,2013-02-23 19:21:00,
2013-02-23 13:37:00,30.4,22.0,29.97,SW,232,2.0,7.0,71,0.01,,,0.01,weatherlink.com 1.10,2013-02-23 19:37:00,
2013-02-23 13:51:00,31.1,23.0,29.96,SSW,192,5.0,8.0,71,0.02,,,0.02,weatherlink.com 1.10,2013-02-23 19:51:00,
2013-02-23 14:06:00,31.5,23.0,29.96,WSW,250,3.0,9.0,70,0.03,,,0.03,weatherlink.com 1.10,2013-02-23 20:06:00,
2013-02-23 14:22:00,32.1,23.0,29.95,SSE,149,5.0,5.0,69,0.03,,,0.03,weatherlink.com 1.10,2013-02-23 20:22:00,
2013-02-23 14:37:00,32.9,23.0,29.95,South,169,5.0,6.0,68,0.03,,,0.04,weatherlink.com 1.10,2013-02-23 20:37:00,
2013-02-23 14:51:00,33.4,24.0,29.94,South,185,3.0,8.0,68,0.02,,,0.04,weatherlink.com 1.10,2013-02-23 20:51:00,
2013-02-23 15:06:00,34.3,24.0,29.94,South,184,6.0,7.0,67,0.01,,,0.04,weatherlink.com 1.10,2013-02-23 21:06:00,
2013-02-23 15:21:00,34.1,25.0,29.94,South,183,2.0,7.0,68,0.01,,,0.04,weatherlink.com 1.10,2013-02-23 21:21:00,
2013-02-23 15:39:00,34.5,25.0,29.93,South,191,1.0,7.0,67,0.00,,,0.04,weatherlink.com 1.10,2013-02-23 21:39:00,
2013-02-23 15:52:00,34.8,25.0,29.93,South,184,2.0,6.0,67,0.01,,,0.05,weatherlink.com 1.10,2013-02-23 21:52:00,
2013-02-23 16:07:00,35.9,25.0,29.93,SE,141,3.0,8.0,66,0.01,,,0.05,weatherlink.com 1.10,2013-02-23 22:07:00,
2013-02-23 16:22:00,35.3,26.0,29.92,SSE,154,2.0,8.0,68,0.01,,,0.05,weatherlink.com 1.10,2013-02-23 22:22:00,
2013-02-23 16:38:00,35.1,25.0,29.91,SW,226,3.0,6.0,68,0.01,,,0.05,weatherlink.com 1.10,2013-02-23 22:38:00,
2013-02-23 16:53:00,35.2,26.0,29.91,South,191,4.0,7.0,68,0.00,,,0.05,weatherlink.com 1.10,2013-02-23 22:53:00,
2013-02-23 17:07:00,35.1,26.0,29.91,South,191,3.0,8.0,69,0.00,,,0.05,weatherlink.com 1.10,2013-02-23 23:07:00,
2013-02-23 17:23:00,34.4,26.0,29.91,WSW,241,2.0,7.0,71,0.00,,,0.05,weatherlink.com 1.10,2013-02-23 23:23:00,
2013-02-23 17:38:00,33.7,26.0,29.91,South,191,3.0,6.0,72,0.00,,,0.05,weatherlink.com 1.10,2013-02-23 23:38:00,
2013-02-23 17:53:00,32.3,25.0,29.91,South,191,1.0,5.0,74,0.00,,,0.05,weatherlink.com 1.10,2013-02-23 23:53:00,
2013-02-23 18:08:00,30.9,24.0,29.91,SE,133,1.0,4.0,76,0.00,,,0.05,weatherlink.com 1.10,2013-02-24 00:08:00,
2013-02-23 18:24:00,29.7,24.0,29.92,South,183,0.0,2.0,78,0.00,,,0.05,weatherlink.com 1.10,2013-02-24 00:24:00,
2013-02-23 18:38:00,29.0,23.0,29.92,SSE,158,0.0,3.0,79,0.00,,,0.05,weatherlink.com 1.10,2013-02-24 00:38:00,
2013-02-23 18:53:00,28.6,23.0,29.92,SSE,150,0.0,4.0,80,0.00,,,0.05,weatherlink.com 1.10,2013-02-24 00:53:00,
2013-02-23 19:08:00,28.3,23.0,29.92,SSE,158,0.0,3.0,81,0.00,,,0.05,weatherlink.com 1.10,2013-02-24 01:08:00,
2013-02-23 19:23:00,27.9,23.0,29.92,SE,132,1.0,3.0,82,0.00,,,0.05,weatherlink.com 1.10,2013-02-24 01:23:00,
2013-02-23 19:39:00,27.6,23.0,29.92,SE,145,2.0,6.0,82,0.00,,,0.05,weatherlink.com 1.10,2013-02-24 01:39:00,
2013-02-23 19:53:00,27.4,23.0,29.92,SE,136,1.0,4.0,83,0.00,,,0.05,weatherlink.com 1.10,2013-02-24 01:53:00,
2013-02-23 20:09:00,27.0,23.0,29.93,ESE,119,1.0,3.0,84,0.00,,,0.05,weatherlink.com 1.10,2013-02-24 02:09:00,
2013-02-23 20:23:00,26.4,22.0,29.94,SE,135,1.0,4.0,84,0.00,,,0.05,weatherlink.com 1.10,2013-02-24 02:23:00,
2013-02-23 20:39:00,25.9,22.0,29.95,SE,132,0.0,3.0,85,0.00,,,0.05,weatherlink.com 1.10,2013-02-24 02:39:00,
2013-02-23 20:54:00,25.6,22.0,29.94,SSE,155,2.0,4.0,86,0.00,,,0.05,weatherlink.com 1.10,2013-02-24 02:54:00,
2013-02-23 21:10:00,25.4,22.0,29.94,SSE,157,0.0,4.0,87,0.00,,,0.05,weatherlink.com 1.10,2013-02-24 03:10:00,
2013-02-23 21:25:00,25.1,22.0,29.95,South,184,1.0,7.0,87,0.00,,,0.05,weatherlink.com 1.10,2013-02-24 03:25:00,
2013-02-23 21:39:00,24.8,22.0,29.95,SSE,156,2.0,5.0,87,0.00,,,0.05,weatherlink.com 1.10,2013-02-24 03:39:00,
2013-02-23 21:55:00,24.4,21.0,29.95,ESE,107,2.0,4.0,87,0.00,,,0.05,weatherlink.com 1.10,2013-02-24 03:55:00,
2013-02-23 22:09:00,24.3,21.0,29.95,South,184,0.0,4.0,88,0.00,,,0.05,weatherlink.com 1.10,2013-02-24 04:09:00,
2013-02-23 22:24:00,24.0,21.0,29.96,South,184,2.0,5.0,88,0.00,,,0.05,weatherlink.com 1.10,2013-02-24 04:24:00,
2013-02-23 22:39:00,23.7,21.0,29.96,South,180,1.0,4.0,88,0.00,,,0.05,weatherlink.com 1.10,2013-02-24 04:39:00,
2013-02-23 22:54:00,23.4,20.0,29.95,SE,133,1.0,3.0,88,0.00,,,0.05,weatherlink.com 1.10,2013-02-24 04:54:00,
2013-02-23 23:09:00,23.2,20.0,29.96,SE,127,2.0,3.0,88,0.00,,,0.05,weatherlink.com 1.10,2013-02-24 05:09:00,
2013-02-23 23:25:00,22.8,20.0,29.95,SSE,166,1.0,3.0,88,0.00,,,0.05,weatherlink.com 1.10,2013-02-24 05:25:00,
2013-02-23 23:40:00,22.7,20.0,29.95,SE,137,1.0,3.0,89,0.00,,,0.05,weatherlink.com 1.10,2013-02-24 05:40:00,
2013-02-23 23:55:00,22.5,20.0,29.95,SSE,157,1.0,4.0,88,0.00,,,0.05,weatherlink.com 1.10,2013-02-24 05:55:00,